Weather reports worldwide

Advertisment
South Newington, United Kingdom (99166): temperature & dewpoint: 13.08.2018 20:00:00 - 19.08.2018 20:00:00 (BST)South Newington, United Kingdom (99166): temperature -20cm & temperature -100cm: 13.08.2018 20:00:00 - 19.08.2018 20:00:00 (BST)South Newington, United Kingdom (99166): precipitation: 13.08.2018 20:00:00 - 19.08.2018 20:00:00 (BST)
Date & Time tt [°C] td [°C] tt -20cm [°C] tt -100cm [°C] rr [mm]
19.08.2018 20:00:00 20,7 15,6 - - 0,0
19.08.2018 19:00:00 21,7 15,3 - - 0,0
19.08.2018 18:00:00 22,5 15,9 - - 0,0
19.08.2018 17:00:00 22,8 16,5 - - 0,0
19.08.2018 16:00:00 22,8 16,6 - - 0,0
19.08.2018 15:00:00 22,9 16,4 - - 0,0
19.08.2018 14:00:00 23,7 16,9 - - 0,0
19.08.2018 13:00:00 21,5 16,2 - - 0,0
19.08.2018 12:00:00 21,1 15,9 - - 0,0
19.08.2018 11:00:00 19,9 16,4 - - 0,0
19.08.2018 10:00:00 18,2 15,5 18,7 17,2 0,0
19.08.2018 09:00:00 17,5 14,9 - - 0,0
19.08.2018 08:00:00 16,8 14,7 - - 0,0
19.08.2018 07:00:00 16,4 14,5 - - 0,0
19.08.2018 06:00:00 16,1 14,0 - - 0,0
19.08.2018 05:00:00 16,1 14,1 - - 0,0
19.08.2018 04:00:00 17,0 15,4 - - 0,0
19.08.2018 03:00:00 17,2 16,5 - - 0,2
19.08.2018 02:00:00 17,2 16,5 - - 0,0
19.08.2018 01:00:00 17,4 16,6 - - 0,0
19.08.2018 00:00:00 17,9 16,3 - - 0,0
18.08.2018 23:00:00 18,1 16,1 - - 0,0
18.08.2018 22:00:00 18,2 15,7 - - 0,0
18.08.2018 21:00:00 18,3 15,5 - - 0,0
18.08.2018 20:00:00 19,1 15,1 - - 0,0
18.08.2018 19:00:00 19,7 15,2 - - 0,0
18.08.2018 18:00:00 20,2 15,4 - - 0,0
18.08.2018 17:00:00 20,2 15,3 - - 0,0
18.08.2018 16:00:00 21,5 14,7 - - 0,0
18.08.2018 15:00:00 21,2 13,8 - - 0,0
18.08.2018 14:00:00 20,4 13,7 - - 0,0
18.08.2018 13:00:00 18,8 13,3 - - 0,0
18.08.2018 12:00:00 18,3 13,1 - - 0,0
18.08.2018 11:00:00 18,6 13,5 - - 0,0
18.08.2018 10:00:00 18,1 14,3 18,5 17,2 0,0
18.08.2018 09:00:00 16,7 14,3 - - 0,0
18.08.2018 08:00:00 16,2 14,2 - - 0,0
18.08.2018 07:00:00 15,6 14,1 - - 0,0
18.08.2018 06:00:00 15,5 14,1 - - 0,0
18.08.2018 05:00:00 15,4 13,8 - - 0,0
18.08.2018 04:00:00 15,4 13,6 - - 0,0
18.08.2018 03:00:00 15,6 13,4 - - 0,0
18.08.2018 02:00:00 15,7 13,6 - - 0,0
18.08.2018 01:00:00 15,3 13,3 - - 0,0
18.08.2018 00:00:00 15,1 12,6 - - 0,0
17.08.2018 23:00:00 15,4 12,5 - - 0,0
17.08.2018 22:00:00 15,8 12,2 - - 0,0
17.08.2018 21:00:00 16,1 11,9 - - 0,0
17.08.2018 20:00:00 16,6 11,3 - - 0,0
17.08.2018 19:00:00 17,2 11,0 - - 0,0
17.08.2018 18:00:00 18,3 11,0 - - 0,0
17.08.2018 17:00:00 18,8 10,8 - - 0,0
17.08.2018 16:00:00 19,1 10,1 - - 0,0
17.08.2018 15:00:00 19,7 10,3 - - 0,0
17.08.2018 14:00:00 19,1 8,5 - - 0,0
17.08.2018 13:00:00 18,9 8,4 - - 0,0
17.08.2018 12:00:00 19,5 9,4 - - 0,0
17.08.2018 11:00:00 18,3 9,9 - - 0,0
17.08.2018 10:00:00 16,3 10,9 18,2 17,2 0,0
17.08.2018 09:00:00 14,9 11,3 - - 0,0
17.08.2018 08:00:00 12,7 12,7 - - 0,0
17.08.2018 07:00:00 7,8 7,7 - - 0,0
17.08.2018 06:00:00 7,2 7,0 - - 0,0
17.08.2018 05:00:00 7,6 7,4 - - 0,0
17.08.2018 04:00:00 8,2 8,1 - - 0,0
17.08.2018 03:00:00 8,7 8,6 - - 0,0
17.08.2018 02:00:00 8,5 8,3 - - 0,0
17.08.2018 01:00:00 8,7 8,4 - - 0,0
17.08.2018 00:00:00 8,8 8,2 - - 0,0
16.08.2018 23:00:00 9,5 8,5 - - 0,0
16.08.2018 22:00:00 11,1 9,5 - - 0,0
16.08.2018 21:00:00 14,3 10,7 - - 0,0
16.08.2018 20:00:00 16,8 10,5 - - 0,0
16.08.2018 19:00:00 17,4 9,7 - - 0,0
16.08.2018 18:00:00 18,3 9,4 - - 0,0
16.08.2018 17:00:00 18,8 10,0 - - 0,0
16.08.2018 16:00:00 19,7 10,6 - - 0,0
16.08.2018 15:00:00 19,7 8,3 - - 0,0
16.08.2018 14:00:00 18,8 10,4 - - 0,0
16.08.2018 13:00:00 16,7 11,0 - - 0,0
16.08.2018 12:00:00 15,0 12,5 - - 0,0
16.08.2018 11:00:00 15,3 14,0 - - 0,0
16.08.2018 10:00:00 15,5 14,3 19,0 17,2 1,6
16.08.2018 09:00:00 15,9 15,0 - - 1,0
16.08.2018 08:00:00 15,8 14,5 - - 1,8
16.08.2018 07:00:00 16,5 16,0 - - 6,0
16.08.2018 06:00:00 16,6 15,8 - - 0,4
16.08.2018 05:00:00 16,6 15,6 - - 0,4
16.08.2018 04:00:00 17,3 14,7 - - 0,0
16.08.2018 03:00:00 17,4 15,0 - - 0,0
16.08.2018 02:00:00 17,6 14,9 - - 0,0
16.08.2018 01:00:00 17,4 14,9 - - 0,0
16.08.2018 00:00:00 17,0 15,3 - - 0,0
15.08.2018 23:00:00 18,3 15,7 - - 0,0
15.08.2018 22:00:00 18,7 15,4 - - 0,0
15.08.2018 21:00:00 19,7 14,6 - - 0,0
15.08.2018 20:00:00 20,5 14,6 - - 0,0
15.08.2018 19:00:00 21,2 13,8 - - 0,0
15.08.2018 18:00:00 22,7 13,6 - - 0,0
15.08.2018 17:00:00 21,5 13,1 - - 0,0
15.08.2018 16:00:00 21,8 13,6 - - 0,0
15.08.2018 15:00:00 21,9 14,1 - - 0,0
15.08.2018 14:00:00 20,5 14,7 - - 0,0
15.08.2018 13:00:00 21,7 16,5 - - 0,0
15.08.2018 12:00:00 20,3 15,9 - - 0,0
15.08.2018 11:00:00 21,1 15,4 - - 0,0
15.08.2018 10:00:00 19,9 15,3 18,7 17,2 0,0
15.08.2018 09:00:00 18,4 15,6 - - 0,0
15.08.2018 08:00:00 17,1 14,1 - - 0,0
15.08.2018 07:00:00 16,3 13,7 - - 0,0
15.08.2018 06:00:00 16,1 13,3 - - 0,0
15.08.2018 05:00:00 15,9 13,4 - - 0,0
15.08.2018 04:00:00 15,0 14,1 - - 0,0
15.08.2018 03:00:00 12,6 12,0 - - 0,0
15.08.2018 02:00:00 13,8 12,4 - - 0,0
15.08.2018 01:00:00 14,2 12,9 - - 0,0
15.08.2018 00:00:00 13,9 12,6 - - 0,0
14.08.2018 23:00:00 14,6 12,7 - - 0,0
14.08.2018 22:00:00 16,1 12,9 - - 0,0
14.08.2018 21:00:00 18,0 12,9 - - 0,0
14.08.2018 20:00:00 19,5 14,4 - - 0,0
14.08.2018 19:00:00 20,7 15,2 - - 0,0
14.08.2018 18:00:00 21,5 15,5 - - 0,0
14.08.2018 17:00:00 21,6 15,5 - - 0,0
14.08.2018 16:00:00 22,0 15,0 - - 0,0
14.08.2018 15:00:00 21,7 14,2 - - 0,0
14.08.2018 14:00:00 21,3 13,7 - - 0,0
14.08.2018 13:00:00 21,1 13,8 - - 0,0
14.08.2018 12:00:00 20,4 13,5 - - 0,0
14.08.2018 11:00:00 19,5 12,0 - - 0,0
14.08.2018 10:00:00 19,4 13,1 18,7 17,2 0,0
14.08.2018 09:00:00 16,6 14,1 - - 0,0
14.08.2018 08:00:00 14,6 14,2 - - 0,0
14.08.2018 07:00:00 13,6 13,6 - - 0,0
14.08.2018 06:00:00 12,6 12,6 - - 0,0
14.08.2018 05:00:00 11,1 11,1 - - 0,0
14.08.2018 04:00:00 9,3 8,6 - - 0,0
14.08.2018 03:00:00 10,7 9,7 - - 0,0
14.08.2018 02:00:00 12,3 11,4 - - 0,0
14.08.2018 01:00:00 12,6 12,3 - - 0,0
14.08.2018 00:00:00 12,3 11,6 - - 0,0
13.08.2018 23:00:00 13,3 12,2 - - 0,0
13.08.2018 22:00:00 15,5 12,2 - - 0,0
13.08.2018 21:00:00 16,8 12,1 - - 0,0
13.08.2018 20:00:00 18,7 12,7 - - 0,0

tt = temperature
td = dewpoint
tt -20cm = temperature -20cm
tt -100cm = temperature -100cm
rr = precipitation

Next stations